Location: Helsinki
(60.1699°N, 24.9384°E)
Time: 16:35:00
(UTC+02:00)

S-56A Canister/Altair - Pass Details

Date: 27 October 2020
Orbit: 633 x 2500 km, 38.9° (Epoch: 29 November)

Event Time Altitude Azimuth Distance (km) Brightness Sun altitude
Rises 11:46:03 0° 255° (WSW) 4,578 11.6 16.7°
Reaches altitude 10° 11:51:13 10° 230° (SW) 4,011 11.8 16.8°
Maximum altitude 11:55:29 13° 207° (SSW) 4,061 12.5 16.8°
Drops below altitude 10° 12:00:15 10° 184° (S) 4,608 14.1 16.8°
Sets 12:07:20 0° 162° (SSE) 5,943 13.5 16.8°
